Weather History for Vicksburg, MS

Change the Weather History Date:

Thursday, February 21, 2013

  Actual Average Record
Temperature  
Mean Temperature 56 °F 51 °F  
Max Temperature 67 °F 62 °F 84 °F (1986)
Min Temperature 45 °F 41 °F 23 °F (1959)
Degree Days  
Heating Degree Days 9 14  
Month to date heating degree days 285 341  
Since 1 July heating degree days 1672 1885  
Cooling Degree Days 0 0  
Month to date cooling degree days 0 0  
Year to date cooling degree days 18 3  
Growing Degree Days 6 (Base 50)    
Moisture  
Dew Point 46 °F    
Average Humidity 71    
Maximum Humidity 100    
Minimum Humidity 42    
Precipitation  
Precipitation 1.61 in 0.18 in 4.12 in (2003)
Month to date precipitation 8.13 4.00  
Year to date precipitation 21.41 9.07  
Sea Level Pressure  
Sea Level Pressure 29.85 in    
Wind  
Wind Speed 12 mph (SE)    
Max Wind Speed 29 mph    
Max Gust Speed 35 mph    
Visibility 8 miles    
Events Fog , Rain , Thunderstorm    
T = Trace of Precipitation, MM = Missing Value Source: NWS Daily Summary

Daily Weather History Graph

Daily Weather History Graph

Search for Another Location

Airport:

Trip Planner

Search our weather history database for the weather conditions in past years. The results will help you decide how hot, cold, wet, or windy it might be!

Date:

Astronomy

Feb. 21, 2013 Rise Set
Actual Time 6:40 AM CST 5:55 PM CST
Civil Twilight 6:15 AM CST 6:20 PM CST
Nautical Twilight 5:46 AM CST 6:48 PM CST
Astronomical Twilight 5:18 AM CST 7:17 PM CST
Moon 2:18 PM CST (2/21) 3:36 AM CST (2/21)
Length of Visible Light 12h 04m
Length of Day
11h 15m
Waxing Gibbous, 84% of the Moon is Illuminated
Feb 21
Waxing Gibbous
Feb 25
Full
Mar 4
Last Quarter
Mar 11
New
Mar 19
First Quarter

Hourly Weather History & Observations

Time (CST) Temp. Windchill Dew Point Humidity Pressure Visibility Wind Dir Wind Speed Gust Speed Precip Events Conditions
12:53 AM 48.0 °F - 28.0 °F 46% 30.06 in 10.0 mi East 9.2 mph - N/A   Overcast
1:53 AM 48.0 °F - 28.0 °F 46% 30.04 in 10.0 mi East 12.7 mph - N/A   Overcast
2:53 AM 48.0 °F - 27.0 °F 44% 30.02 in 10.0 mi East 11.5 mph - N/A   Overcast
3:53 AM 46.9 °F - 27.0 °F 46% 30.01 in 10.0 mi East 12.7 mph - N/A   Overcast
4:53 AM 46.9 °F - 28.0 °F 48% 30.01 in 10.0 mi ESE 10.4 mph - N/A   Overcast
5:02 AM 46.4 °F 41.1 °F 28.4 °F 50% 29.99 in 10.0 mi East 11.5 mph - N/A   Overcast
5:53 AM 46.9 °F - 28.0 °F 48% 30.02 in 10.0 mi ESE 10.4 mph - N/A   Overcast
6:53 AM 46.9 °F - 28.0 °F 48% 30.00 in 10.0 mi ESE 15.0 mph - N/A   Overcast
7:53 AM 48.9 °F - 28.0 °F 44% 30.01 in 10.0 mi ESE 9.2 mph - N/A   Mostly Cloudy
8:02 AM 48.2 °F - 28.4 °F 46% 29.98 in 10.0 mi ESE 10.4 mph - N/A   Mostly Cloudy
8:53 AM 48.9 °F - 30.0 °F 48% 29.95 in 10.0 mi ESE 13.8 mph - N/A   Mostly Cloudy
9:18 AM 48.2 °F - 32.0 °F 54% 29.94 in 10.0 mi SE 15.0 mph - 0.00 in Rain Light Rain
9:32 AM 48.2 °F - 33.8 °F 58% 29.94 in 6.0 mi SE 13.8 mph - 0.02 in Rain , Thunderstorm Light Rain
9:41 AM 46.4 °F 38.1 °F 35.6 °F 66% 29.94 in 3.0 mi SE 24.2 mph 27.6 mph 0.04 in Rain , Thunderstorm Heavy Thunderstorms and Rain
9:53 AM 45.0 °F 36.9 °F 37.9 °F 76% 29.90 in 3.0 mi SE 20.7 mph 31.1 mph 0.09 in Rain , Thunderstorm Thunderstorms and Rain
10:09 AM 46.4 °F 38.1 °F 39.2 °F 76% 29.86 in 10.0 mi SE 24.2 mph 32.2 mph 0.00 in   Mostly Cloudy
10:53 AM 51.1 °F - 44.1 °F 77% 29.88 in 10.0 mi SE 23.0 mph 29.9 mph 0.00 in   Overcast
11:03 AM 51.8 °F - 44.6 °F 76% 29.86 in 10.0 mi SSE 16.1 mph 24.2 mph N/A   Overcast
11:53 AM 53.1 °F - 44.1 °F 71% 29.88 in 10.0 mi SSE 13.8 mph - N/A   Overcast
12:33 PM 55.4 °F - 46.4 °F 72% 29.82 in 10.0 mi SSE 11.5 mph - N/A   Overcast
12:53 PM 57.0 °F - 46.0 °F 67% 29.83 in 10.0 mi SE 11.5 mph - N/A   Overcast
1:53 PM 60.1 °F - 51.1 °F 72% 29.77 in 10.0 mi SE 10.4 mph - 0.00 in Rain Light Rain
2:12 PM 57.2 °F - 51.8 °F 82% 29.72 in 4.0 mi East 8.1 mph - 0.04 in Rain , Thunderstorm Light Thunderstorms and Rain
2:23 PM 57.2 °F - 53.6 °F 88% 29.72 in 9.0 mi ENE 3.5 mph - 0.05 in Rain , Thunderstorm Light Thunderstorms and Rain
2:45 PM 55.4 °F - 53.6 °F 94% 29.75 in 1.5 mi North 8.1 mph 21.9 mph 0.21 in Rain , Thunderstorm Heavy Thunderstorms and Rain
2:53 PM 55.9 °F - 54.0 °F 93% 29.78 in 0.5 mi North 5.8 mph - 0.43 in Fog , Rain , Thunderstorm Heavy Thunderstorms and Rain
3:01 PM 55.4 °F - 53.6 °F 94% 29.76 in 1.0 mi NNE 6.9 mph - 0.07 in Rain , Thunderstorm Heavy Thunderstorms and Rain
3:42 PM 57.2 °F - 55.4 °F 94% 29.71 in 3.0 mi SE 9.2 mph - 0.49 in Rain , Thunderstorm Rain
3:53 PM 57.0 °F - 55.9 °F 96% 29.73 in 6.0 mi ESE 11.5 mph 19.6 mph 0.50 in Rain Light Rain
4:15 PM 57.2 °F - 55.4 °F 94% 29.71 in 9.0 mi ESE 11.5 mph - 0.00 in Rain , Thunderstorm Light Thunderstorms and Rain
4:31 PM 57.2 °F - 55.4 °F 94% 29.72 in 2.0 mi SE 9.2 mph - 0.09 in Rain , Thunderstorm Heavy Thunderstorms and Rain
4:50 PM 57.2 °F - 57.2 °F 100% 29.70 in 5.0 mi ESE 9.2 mph - 0.13 in Rain Light Rain
4:51 PM 57.9 °F - 57.0 °F 97% 29.72 in 6.0 mi SE 8.1 mph - 0.13 in Rain Light Rain
5:03 PM 57.2 °F - 57.2 °F 100% 29.71 in 4.0 mi SSE 4.6 mph - 0.04 in Rain , Thunderstorm Light Thunderstorms and Rain
5:10 PM 59.0 °F - 57.2 °F 94% 29.75 in 1.8 mi SSW 3.5 mph - 0.08 in Rain , Thunderstorm Thunderstorms and Rain
5:44 PM 62.6 °F - 60.8 °F 94% 29.69 in 3.0 mi South 25.3 mph 34.5 mph 0.41 in Rain , Thunderstorm Light Thunderstorms and Rain
5:53 PM 63.0 °F - 61.0 °F 93% 29.72 in 10.0 mi South 17.3 mph 33.4 mph 0.41 in Rain , Thunderstorm Light Rain
6:13 PM 64.4 °F - 62.6 °F 94% 29.71 in 4.0 mi SSW 12.7 mph 19.6 mph 0.04 in Rain Light Rain
6:53 PM 66.9 °F - 63.0 °F 87% 29.76 in 10.0 mi SW 10.4 mph 19.6 mph 0.05 in   Overcast
7:53 PM 66.0 °F - 63.0 °F 90% 29.80 in 10.0 mi WSW 6.9 mph - 0.00 in   Overcast
8:08 PM 64.4 °F - 62.6 °F 94% 29.78 in 10.0 mi West 6.9 mph - N/A   Overcast
9:28 PM 62.6 °F - 59.0 °F 88% 29.86 in 10.0 mi NW 16.1 mph 26.5 mph N/A   Overcast
9:49 PM 59.0 °F - 55.4 °F 88% 29.88 in 10.0 mi NW 8.1 mph 17.3 mph N/A   Overcast
9:53 PM 59.0 °F - 55.0 °F 87% 29.90 in 10.0 mi NNW 10.4 mph - N/A   Overcast
10:53 PM 55.0 °F - 46.9 °F 74% 29.92 in 10.0 mi NNW 5.8 mph - N/A   Overcast
11:53 PM 53.1 °F - 44.1 °F 71% 29.94 in 10.0 mi NNW 5.8 mph - N/A   Overcast